RH
55 47 47 46 45 46 46 47 48 48 49 50 49 50 51 52 53 53 54 54 54 53 51 50 48 47 45 43 41 39 35 30 25 19 14 11 8 7 7 6 6 5 5 5 5 6 6 7 8 8 10 16 26 36 45 55 61 64 66 66 66 65 66 67 66 66 66 65 60 58 58 52 45 40 33 29 28 27 25 23 22 21 21 20 20
55 51 51 50 50 51 51 52 52 52 53 53 53 54 55 56 57 57 58 57 55 54 52 51 50 48 46 42 37 31 25 19 14 10 7 6 5 5 4 4 4 3 3 3 3 3 3 4 4 5 7 10 15 22 31 41 51 59 65 68 70 71 70 69 68 70 71 70 66 64 58 49 50 52 45 37 33 30 26 23 21 21 22 21 21
59 56 55 54 55 55 55 55 55 56 56 57 58 59 60 61 62 62 61 59 56 54 53 52 50 47 43 35 27 20 14 10 7 5 5 4 4 4 3 3 3 3 3 3 3 3 3 3 4 4 6 9 12 18 23 30 40 53 65 73 75 75 75 74 73 74 74 74 72 65 55 49 51 51 48 47 45 40 34 27 21 19 22 23 23
63 59 58 58 58 58 58 59 59 60 60 61 63 65 66 68 68 66 63 60 57 56 54 51 47 42 35 26 18 12 9 7 5 5 5 5 5 4 4 4 3 3 3 3 3 3 3 3 4 4 4 6 9 15 23 30 39 54 67 76 80 82 82 80 79 79 78 78 74 65 58 56 51 45 46 50 51 51 46 36 27 22 21 23 24
64 62 61 61 61 61 62 64 64 64 66 69 72 74 75 73 71 68 65 63 61 58 53 46 39 33 26 19 13 9 7 6 5 6 5 5 5 4 4 4 4 4 4 4 4 4 4 4 3 4 4 5 7 13 24 33 42 55 67 76 83 87 88 88 85 83 82 82 80 75 68 61 54 51 53 51 49 52 52 48 42 33 24 20 21
64 63 64 64 65 66 67 69 70 72 76 80 81 81 80 76 73 72 70 68 65 59 50 41 31 24 17 12 9 7 6 6 5 5 5 4 4 4 4 4 4 4 4 4 4 4 4 4 4 4 4 5 6 9 16 23 29 39 52 65 75 81 87 90 88 85 86 86 84 82 77 71 68 67 65 57 52 52 53 55 55 49 39 27 21
66 66 67 69 70 71 72 74 78 83 87 89 87 85 81 77 75 75 73 70 64 56 45 34 24 16 11 8 6 5 5 5 5 5 5 4 5 5 4 5 4 4 5 4 4 4 4 4 4 4 4 5 5 6 8 10 13 17 25 38 52 65 79 88 87 85 88 89 87 88 88 85 82 79 75 69 63 59 55 55 58 59 55 43 30
70 70 71 72 74 76 79 84 88 91 92 90 87 82 79 77 76 75 72 68 61 50 37 24 15 9 7 6 5 5 5 5 5 5 5 5 5 5 4 4 5 4 5 5 4 5 4 5 4 4 5 5 5 5 6 6 6 7 9 13 21 35 53 70 77 82 88 90 87 87 89 89 88 87 84 80 75 70 65 62 60 60 59 56 49
73 75 76 78 82 86 89 91 93 93 90 86 82 78 77 76 75 73 69 66 58 42 26 15 9 6 5 5 5 5 6 6 6 5 5 5 5 5 5 5 5 5 5 5 5 5 5 5 5 5 5 5 5 5 5 6 6 6 6 6 7 11 18 29 40 53 73 88 92 91 88 87 88 87 87 86 83 78 72 68 66 63 61 59 58
77 79 82 87 91 91 89 89 89 87 84 82 80 78 76 74 72 71 68 65 54 34 17 8 6 5 5 6 6 5 6 6 6 6 6 6 6 5 6 6 6 6 6 6 6 6 6 6 6 6 6 6 6 6 6 6 6 6 6 6 6 7 7 9 13 21 36 54 70 84 91 90 88 86 86 87 86 85 80 75 72 70 67 63 61
83 86 90 94 94 92 88 85 85 84 83 82 81 78 75 73 72 70 67 63 49 25 9 6 5 5 5 6 6 6 7 7 6 7 6 6 6 6 7 7 7 7 7 7 7 7 7 7 7 7 7 7 7 7 7 7 7 7 7 6 6 6 7 7 8 10 13 18 29 53 77 87 87 85 85 84 85 84 82 80 77 73 71 67 66
90 91 92 94 93 92 88 84 82 82 84 83 81 78 75 73 71 69 66 59 41 17 6 6 5 6 6 6 7 7 7 8 8 8 7 7 7 7 8 8 8 8 8 8 8 8 8 8 8 8 8 8 8 8 8 8 8 7 7 7 7 7 7 8 9 9 11 12 15 30 57 76 84 86 86 84 83 83 81 81 79 77 75 70 68
92 87 85 85 85 85 82 81 82 84 86 85 82 79 76 74 70 66 59 43 24 10 6 7 6 7 7 7 7 8 8 9 9 10 10 9 10 10 10 10 10 10 10 10 10 10 10 10 10 10 10 9 9 9 9 9 9 9 9 8 8 8 8 9 11 11 13 15 16 19 30 43 55 70 82 85 85 83 81 82 81 80 79 75 72
92 88 83 80 79 81 81 83 86 87 87 85 81 78 74 71 66 55 40 22 11 8 8 8 7 8 8 8 8 9 10 11 11 12 11 11 12 12 12 13 13 13 12 12 12 11 11 11 11 10 10 11 11 11 11 11 11 11 10 10 10 10 10 10 11 12 14 15 18 20 20 21 24 35 53 68 80 85 83 83 84 83 81 80 77
95 92 89 84 81 83 85 87 90 89 88 83 78 75 71 66 56 40 22 11 8 8 8 8 9 9 9 10 10 11 12 12 13 14 13 13 14 14 15 15 15 15 14 13 13 13 12 12 12 12 12 12 12 12 12 12 13 13 13 12 12 12 13 14 15 15 16 16 17 20 22 22 22 26 34 43 59 74 81 85 85 83 82 80 77
97 94 91 88 86 87 88 90 91 89 84 79 75 72 68 59 42 24 12 9 9 9 9 10 10 10 11 11 12 13 14 14 15 15 15 16 16 17 17 17 17 16 15 15 14 14 14 14 14 13 13 13 13 13 14 13 14 14 15 14 14 15 16 17 18 19 20 21 22 23 24 23 26 37 50 61 68 72 76 83 86 85 84 82 78
97 95 93 92 90 90 91 92 90 86 80 77 74 70 64 51 29 14 10 10 11 11 11 12 11 12 13 13 14 15 16 16 17 17 16 17 17 18 18 18 18 18 17 17 17 16 17 16 16 16 15 15 15 15 15 16 16 17 17 17 17 19 20 20 22 23 23 25 26 27 29 27 27 32 43 64 85 90 87 86 87 88 87 87 84
99 96 94 92 93 93 93 91 87 83 79 76 72 68 61 43 20 11 12 12 12 13 12 13 13 14 14 15 15 16 17 18 18 18 18 18 18 19 20 20 20 20 20 21 21 20 20 20 19 19 18 18 18 19 19 20 21 22 22 22 22 23 24 25 27 28 28 29 29 29 30 30 31 33 30 39 59 79 93 98 95 94 93 91 91
98 93 92 93 96 96 92 89 85 81 78 74 68 65 59 38 15 10 13 13 13 14 14 15 15 16 16 17 17 18 19 20 20 20 21 21 22 22 22 22 23 24 24 24 24 23 23 23 22 21 21 22 22 23 25 26 27 28 28 28 29 31 32 32 33 34 34 34 34 34 35 34 35 37 36 35 37 46 70 94 100 98 98 98 96
89 84 92 96 97 96 91 87 84 80 76 71 66 67 60 36 14 12 14 14 15 16 17 18 18 19 19 19 20 21 21 23 23 24 24 24 25 25 25 25 25 26 26 26 26 26 25 25 24 24 25 26 28 29 31 33 34 34 34 34 35 38 39 38 39 40 40 41 40 39 41 42 42 42 40 41 43 39 49 79 100 101 100 100 98
88 81 89 95 94 93 89 85 83 78 73 70 71 74 63 35 16 16 17 16 17 18 18 20 20 21 22 22 23 23 24 26 26 26 26 26 26 26 26 27 28 28 28 28 28 28 28 27 27 27 28 30 33 35 37 40 41 40 41 41 42 43 43 43 43 44 45 46 46 46 45 46 47 47 44 43 46 43 45 63 85 95 100 102 101
86 80 84 89 91 89 86 84 80 74 72 73 76 79 64 33 16 18 18 17 19 19 20 21 21 22 24 24 25 25 25 26 26 26 26 26 27 28 29 30 30 31 31 31 31 31 30 30 30 30 32 35 39 42 44 46 47 47 47 47 47 47 47 48 48 48 50 52 52 52 52 53 53 52 50 50 53 56 60 66 74 85 91 92 97
75 75 79 82 85 86 84 82 77 72 72 75 78 79 60 29 16 18 18 18 19 20 20 22 23 24 25 25 25 25 25 26 26 26 28 29 31 32 33 34 34 34 35 34 34 34 33 33 33 33 36 40 44 47 49 51 51 51 51 51 51 51 51 52 53 53 55 57 59 60 61 66 69 69 69 72 78 82 87 91 93 95 92 84 87
70 72 76 79 81 83 83 81 75 71 73 75 79 77 52 24 16 19 18 19 20 20 22 23 24 25 25 26 27 27 27 28 29 30 31 32 33 34 35 36 37 37 37 37 37 36 36 35 36 37 41 45 48 51 52 52 53 53 54 54 54 56 57 59 60 61 62 65 69 70 70 71 77 81 81 85 92 93 93 96 97 98 100 96 92
73 72 75 79 81 83 84 80 73 72 74 78 81 72 41 18 17 18 18 19 20 20 22 23 24 25 26 28 29 30 31 32 33 34 34 35 35 36 37 38 39 40 40 40 39 38 38 38 38 41 44 47 51 54 54 54 54 55 56 58 61 63 65 65 66 68 72 76 78 75 72 73 78 81 80 82 86 86 87 91 87 84 91 101 101
74 74 76 79 81 85 86 78 73 75 78 82 83 62 30 16 17 18 18 20 20 21 23 24 26 28 29 31 32 33 33 34 35 35 35 36 37 38 40 41 43 44 43 42 42 41 40 40 41 44 47 50 53 55 55 55 55 57 59 64 68 70 70 72 74 76 78 79 81 79 76 75 77 76 72 73 77 78 81 86 84 78 78 86 98
74 74 74 78 81 86 86 78 76 80 82 87 81 53 24 18 20 19 20 22 23 25 27 28 31 32 33 34 34 34 35 35 35 36 36 38 39 40 42 43 45 46 45 45 44 43 43 44 45 47 49 53 55 56 56 56 56 59 65 70 72 71 73 77 79 80 80 81 82 82 77 73 72 73 70 67 69 72 75 79 81 82 80 81 87
72 73 72 77 83 87 84 79 81 85 87 89 74 42 22 22 23 22 24 26 28 29 30 32 34 35 36 36 36 35 35 35 36 37 37 38 40 41 42 44 45 46 46 47 46 46 46 46 47 48 51 54 56 56 56 56 57 63 69 71 69 70 76 80 82 82 85 88 88 84 80 75 72 74 75 74 72 70 71 74 74 78 86 93 93
66 71 73 78 85 87 83 82 85 88 91 86 61 32 22 24 24 24 26 29 31 32 33 34 35 36 36 36 36 35 35 35 36 36 37 38 39 41 42 43 45 46 48 48 48 49 49 49 49 49 52 55 57 57 56 57 62 67 69 69 70 75 82 87 91 92 93 95 94 90 87 84 78 75 77 79 77 72 71 70 67 69 83 98 101
66 72 76 81 87 86 83 85 88 91 93 76 46 27 25 25 24 26 27 29 32 34 34 35 36 36 36 36 36 36 35 36 37 37 38 39 40 41 42 43 44 47 48 49 50 51 52 51 50 51 53 56 57 57 55 58 66 71 73 80 88 93 95 97 99 98 98 98 97 91 86 85 85 85 82 78 74 73 75 78 79 84 94 101 101
71 75 78 83 86 84 84 88 91 94 87 62 36 26 27 26 26 28 29 32 35 36 36 36 36 37 37 37 37 38 37 38 39 40 41 42 42 43 43 44 45 47 50 52 54 55 55 54 53 54 56 58 58 57 57 61 68 71 72 82 96 101 100 100 101 100 101 100 95 89 86 88 91 93 90 84 75 71 77 84 86 90 98 100 100
74 76 78 82 84 85 88 91 94 91 74 48 31 28 28 28 29 30 32 35 36 36 37 36 37 37 37 38 39 39 40 40 41 43 44 44 44 45 45 46 47 49 51 54 57 58 58 56 56 56 58 60 59 58 61 66 68 69 70 75 90 101 101 100 100 99 98 99 99 96 96 97 97 95 95 94 88 81 83 84 76 73 81 85 84
73 74 77 82 85 88 91 93 92 82 61 40 31 30 29 29 31 32 34 36 36 37 37 37 37 38 38 39 41 41 41 42 44 46 47 47 47 47 48 48 49 51 53 56 58 60 59 56 57 58 59 61 61 60 65 68 67 70 72 72 85 100 101 99 101 99 97 100 100 100 101 101 100 99 99 100 99 96 97 96 82 69 69 69 68
74 77 81 85 88 90 93 92 84 68 49 36 30 30 30 30 31 33 35 37 37 37 38 38 38 38 39 41 42 43 44 46 49 50 49 50 50 49 50 50 51 53 56 59 61 61 60 57 58 60 61 63 63 63 67 68 68 72 71 68 83 101 101 98 99 97 99 100 97 100 103 98 95 100 100 100 101 99 100 103 96 83 73 68 66
80 85 88 89 90 92 94 89 74 55 41 32 29 30 30 29 32 34 35 37 38 38 39 39 39 39 41 43 44 46 48 50 52 52 51 51 51 51 52 52 54 56 59 63 64 63 61 59 59 62 63 64 65 67 68 65 65 71 68 65 83 102 102 97 92 87 90 93 90 91 90 83 87 99 101 100 102 101 100 101 97 89 81 73 68
87 90 90 91 91 94 95 86 68 50 38 31 30 31 31 30 32 34 35 38 38 38 39 39 40 41 42 44 46 48 50 52 53 52 52 52 53 53 54 54 55 57 60 64 66 65 64 62 61 64 66 67 66 67 67 62 61 66 64 63 81 100 102 99 94 86 86 89 84 79 76 76 88 101 99 93 92 94 100 103 97 87 82 78 72
93 92 91 92 92 94 94 82 63 47 37 32 33 33 33 33 34 35 38 39 39 40 40 40 41 42 43 45 48 51 53 54 54 53 53 53 54 55 55 56 57 58 60 63 65 67 66 64 63 65 69 71 69 66 66 60 56 59 59 63 86 103 101 101 99 90 89 88 76 68 73 81 92 100 94 83 79 84 94 100 94 86 83 82 77
94 93 93 93 93 95 92 77 57 43 35 33 35 35 34 35 35 37 40 40 41 41 41 42 42 43 45 47 50 53 55 56 56 56 55 54 55 57 57 58 59 59 60 63 67 69 69 66 65 67 71 74 70 65 62 56 52 53 54 65 91 103 99 102 101 94 96 91 67 59 72 85 95 99 89 75 73 82 91 92 88 85 83 79 76
91 93 95 94 94 95 89 70 50 39 35 35 36 36 35 35 37 39 41 41 42 42 41 43 44 44 46 49 51 54 56 57 58 57 56 55 56 58 59 59 61 62 62 64 69 72 72 69 66 67 71 72 67 60 56 52 51 52 53 68 94 103 99 103 100 96 102 88 56 53 74 88 96 95 83 73 72 77 84 87 83 84 85 80 75
91 95 96 95 95 95 85 64 45 37 35 35 37 37 35 36 38 40 41 43 43 42 42 43 44 44 47 49 52 55 56 57 59 58 56 55 56 58 59 59 62 64 64 64 69 75 75 70 66 67 68 67 61 55 53 52 54 56 58 72 95 102 100 100 99 101 102 77 46 51 76 90 94 87 74 72 73 72 80 88 87 91 94 85 77
91 97 98 97 97 94 80 59 43 38 35 35 38 37 36 38 39 40 42 45 44 42 43 45 45 46 48 50 54 57 58 58 59 58 56 55 56 58 59 59 61 64 65 65 68 74 76 73 68 67 64 60 56 55 56 56 57 61 63 72 91 102 101 99 100 102 92 67 53 64 79 86 91 85 75 75 73 67 77 88 92 95 90 76 73
94 99 99 98 99 94 76 53 40 37 35 35 38 38 37 39 39 40 45 47 44 43 45 45 46 47 49 51 55 58 59 58 59 59 57 55 56 58 59 59 61 63 65 66 68 72 76 74 69 64 60 57 56 58 61 60 61 67 69 71 86 101 101 98 101 101 81 60 64 80 84 85 92 92 86 85 77 68 79 95 96 89 78 71 79
96 99 100 101 100 91 71 49 38 36 35 36 39 40 40 40 39 42 48 47 45 45 46 46 47 48 50 52 55 58 59 58 58 59 58 56 57 59 60 61 62 63 64 66 68 72 76 76 72 65 60 59 59 62 66 64 65 75 78 72 79 97 103 98 101 102 83 64 69 86 92 94 98 96 89 85 79 76 89 102 94 79 76 83 92
98 100 100 100 94 81 63 46 36 35 36 37 39 42 43 41 40 46 50 48 46 46 47 47 48 49 50 53 55 57 59 59 59 59 59 58 59 60 62 64 65 65 65 66 68 74 78 79 76 69 63 63 65 68 69 65 67 82 86 76 80 97 102 98 101 103 90 72 71 85 94 98 100 95 87 83 81 80 90 96 87 78 84 94 97
100 99 95 88 77 65 53 41 34 35 37 38 40 43 43 41 43 49 51 49 47 47 47 47 49 50 51 53 55 57 59 60 60 61 61 61 62 63 65 67 69 70 69 67 68 75 83 87 85 80 75 73 74 75 73 66 71 88 92 83 89 100 99 96 102 102 87 73 71 78 84 92 99 97 91 87 84 81 82 86 86 85 88 91 93
100 96 86 73 60 50 43 37 33 34 36 38 40 42 43 42 46 51 52 51 49 47 47 48 49 51 52 54 56 58 59 60 61 61 62 63 65 67 67 70 73 74 73 71 68 76 90 97 95 93 92 90 85 80 77 73 78 93 96 90 97 104 97 94 101 95 77 68 72 74 77 87 99 102 98 96 95 90 83 80 82 86 88 90 93
100 91 76 61 50 44 40 37 35 34 36 40 40 41 43 44 47 52 54 52 50 48 48 49 50 51 53 54 56 58 60 62 62 62 63 65 67 69 70 73 77 78 77 74 73 82 96 102 100 99 99 99 93 85 79 79 86 98 101 96 100 102 95 95 100 90 74 71 75 74 76 85 96 102 101 100 100 100 95 87 84 85 89 93 96
98 86 69 54 46 42 40 40 38 36 38 41 41 42 45 46 48 53 55 53 51 49 49 50 51 53 54 55 57 60 62 64 64 63 65 67 69 72 72 75 79 81 80 79 84 95 102 101 100 100 100 101 98 87 80 86 96 103 101 99 102 101 97 100 100 89 79 79 77 72 75 83 93 100 100 98 98 100 101 98 95 93 94 95 95
96 83 64 49 43 42 43 42 39 38 40 42 42 44 46 47 50 55 57 54 52 51 51 51 52 54 55 56 58 60 63 66 66 65 67 68 71 74 76 76 80 84 84 85 94 103 104 99 101 102 100 104 104 92 85 93 102 102 100 101 101 97 96 101 99 91 86 83 80 80 84 90 96 99 99 97 97 99 100 100 100 100 100 99 98
92 76 58 47 43 43 45 43 40 40 42 43 44 46 47 48 53 57 58 56 54 53 52 52 52 54 56 57 59 61 64 66 67 67 68 69 71 75 78 80 85 89 87 87 94 102 102 101 102 99 94 97 101 97 92 95 100 100 101 100 93 88 94 102 99 92 89 87 88 93 96 96 98 101 100 99 99 99 100 100 100 100 100 100 101
87 71 57 49 46 46 46 44 42 42 44 45 46 47 49 51 56 60 60 58 57 56 54 53 54 55 57 58 60 62 64 67 68 69 70 70 71 74 76 80 86 91 90 88 89 93 95 97 97 91 83 82 89 91 89 90 96 101 101 97 91 89 95 99 94 89 91 93 94 97 97 97 99 100 101 102 102 101 101 101 100 100 101 100 100
Wind_Speed
26 27 26 24 23 22 20 18 16 14 13 11 9 8 8 8 8 9 12 15 17 20 21 23 25 27 28 29 30 30 30 29 28 26 23 21 20 19 19 19 19 20 20 20 21 22 23 24 25 26 26 27 27 27 28 28 29 30 31 32 33 33 33 33 33 33 32 31 29 26 27 32 34 35 33 30 28 27 24 21 20 19 20 21 22
25 25 23 21 20 18 17 15 13 11 11 9 8 10 10 11 13 15 19 21 22 24 26 27 29 30 31 32 31 30 29 27 25 24 22 20 19 18 18 18 18 18 19 19 20 20 21 22 23 24 24 25 25 26 26 27 27 28 29 30 31 32 33 33 32 32 29 26 24 25 28 27 23 24 30 31 26 22 21 22 22 22 22 22 22
22 22 20 19 17 16 14 13 12 11 11 11 11 12 14 16 19 22 24 25 26 28 29 30 31 32 32 31 29 27 25 24 22 21 20 20 19 18 18 18 18 18 18 19 19 19 19 20 21 22 23 24 25 25 25 26 26 27 27 28 29 29 30 30 30 29 28 26 24 23 23 21 19 18 21 23 23 25 28 29 28 25 23 22 21
20 20 18 17 15 14 13 13 12 12 12 13 15 16 19 22 25 27 28 29 29 31 32 33 34 33 32 29 26 24 22 21 21 20 20 19 19 19 19 19 19 18 18 19 19 19 19 20 20 21 22 23 25 25 26 26 26 26 26 26 26 27 27 26 26 26 27 25 19 18 18 19 20 15 13 17 20 25 29 28 27 26 24 23 23
18 18 16 15 13 13 13 13 12 13 14 16 18 21 24 26 28 29 30 31 32 34 35 35 34 32 30 27 25 22 21 21 20 20 20 20 20 19 19 19 20 19 18 18 19 19 19 20 20 20 21 22 23 24 25 26 26 26 26 26 25 25 25 25 26 26 27 25 22 20 17 16 17 16 20 24 20 18 22 26 31 33 32 29 27
17 16 15 13 13 13 12 13 13 15 17 19 22 24 26 28 29 29 31 32 34 36 37 35 33 31 29 27 26 24 23 22 22 21 21 21 20 20 19 19 20 20 19 19 19 19 19 19 19 20 20 21 21 22 23 25 26 26 26 27 26 26 25 24 26 27 26 26 27 26 23 22 24 24 24 25 24 22 20 22 26 30 33 34 32
15 14 13 12 12 12 12 14 15 17 19 21 23 25 27 28 29 30 32 34 36 38 38 35 32 29 28 26 25 25 24 23 23 22 22 21 20 20 20 20 20 20 20 20 21 21 21 20 20 20 20 20 21 21 22 24 25 26 26 27 27 27 27 26 27 27 23 21 22 21 23 25 27 27 25 25 29 30 26 22 22 24 32 39 40
13 12 11 11 11 12 13 14 16 17 20 22 24 26 27 29 30 32 33 35 37 39 37 33 30 28 27 25 24 23 23 23 22 22 22 22 21 20 20 20 20 20 20 21 22 22 22 22 22 21 21 20 20 21 22 23 24 25 25 26 27 27 27 28 30 28 24 20 18 17 19 20 21 24 27 27 28 32 34 31 28 26 29 36 41
10 10 9 10 11 13 15 16 18 20 22 24 25 26 27 29 31 32 33 36 38 39 35 31 29 27 26 24 23 23 22 22 22 22 22 22 22 21 21 20 20 20 20 21 22 23 23 23 23 23 23 23 23 23 23 23 24 24 25 25 25 26 27 28 30 30 27 24 20 18 19 19 19 20 22 25 27 30 34 33 31 28 27 29 31
8 7 8 9 11 14 18 19 20 21 22 23 24 26 27 29 31 33 34 36 39 37 33 29 27 26 25 24 23 23 22 22 22 22 22 22 22 22 22 21 21 21 21 21 23 23 23 23 24 24 24 24 25 25 25 26 26 26 26 25 26 26 26 27 28 29 29 28 26 23 22 20 20 20 19 20 23 26 31 33 32 31 31 32 30
6 6 8 9 12 15 19 20 20 20 20 21 23 25 28 30 31 32 35 37 38 35 30 28 26 25 25 24 23 23 22 22 22 22 23 23 23 22 22 23 23 23 23 23 24 25 25 24 25 25 25 25 26 26 27 27 28 28 28 27 27 27 27 27 28 28 29 30 30 28 27 24 23 24 21 21 22 24 27 30 30 29 31 35 33
6 9 10 12 15 17 19 20 20 20 20 21 22 25 28 29 30 32 35 37 36 32 28 26 25 25 24 23 23 23 23 22 22 23 23 23 24 24 24 24 24 24 25 25 25 26 27 27 27 27 27 27 27 27 28 28 29 29 29 29 29 28 28 28 29 29 29 29 30 29 28 26 25 25 24 24 25 25 27 30 29 26 29 34 30
6 9 12 15 17 18 20 21 21 21 21 21 23 26 28 30 31 33 35 34 31 28 25 24 23 23 23 23 22 22 22 22 22 23 23 24 24 25 25 25 26 26 26 27 27 27 28 28 28 28 28 28 28 29 29 29 30 30 31 31 30 30 30 29 29 29 29 29 30 30 30 30 30 28 25 25 26 26 27 31 30 26 29 35 31
5 8 12 15 17 19 20 21 21 21 21 22 25 27 29 31 33 34 33 30 27 24 24 23 22 22 22 21 21 21 21 21 22 23 23 23 24 24 25 26 26 27 27 28 28 28 28 29 29 29 29 29 29 29 30 30 30 31 31 31 31 31 31 31 31 30 30 30 30 30 32 33 34 33 30 29 28 27 28 29 29 27 29 33 31
8 11 13 16 17 19 20 20 20 20 21 23 25 28 31 33 34 33 29 26 23 22 22 22 21 21 21 21 20 20 20 21 21 22 23 23 24 24 25 26 26 27 28 28 28 29 29 29 29 29 29 29 29 29 30 30 30 31 32 32 31 31 30 31 32 32 32 32 31 31 32 32 33 33 33 33 31 29 30 29 28 28 29 31 31
12 15 16 17 18 19 20 20 19 20 22 24 26 30 33 34 33 30 26 23 22 22 21 21 21 20 20 20 19 20 20 21 21 22 23 23 24 25 25 26 26 27 28 28 28 29 29 30 30 30 30 30 30 29 30 30 30 31 32 32 32 31 31 31 31 32 32 32 32 32 33 33 32 30 30 30 29 29 30 30 29 29 30 31 30
16 17 18 19 19 19 20 19 19 20 23 26 29 32 34 34 32 27 24 22 22 22 21 21 21 20 20 20 20 20 21 21 22 23 24 24 24 25 26 26 26 27 28 28 29 29 29 30 30 31 30 30 30 30 30 30 31 32 32 32 32 31 31 32 31 32 32 32 33 32 33 34 33 32 31 29 26 25 27 29 30 30 30 32 31
17 18 19 20 20 20 20 19 20 21 23 28 31 34 36 34 30 26 23 22 22 22 22 21 21 21 20 20 20 20 21 22 23 24 24 24 25 25 26 27 27 27 28 29 29 30 30 30 31 31 31 31 31 31 31 31 32 33 33 32 32 32 32 33 32 33 33 33 33 33 33 34 34 33 34 33 30 29 27 27 29 29 30 33 33
17 19 20 21 21 21 20 19 20 22 25 29 33 36 36 31 27 24 23 22 22 22 22 21 21 21 20 20 20 21 21 22 23 24 25 25 25 26 26 27 27 28 28 29 30 30 30 31 31 31 31 31 31 31 31 32 32 33 33 33 33 33 33 34 33 33 34 34 34 34 34 34 34 34 35 35 34 34 33 30 30 30 31 33 33
16 19 21 22 22 21 21 20 21 24 27 32 36 36 34 29 25 24 22 22 22 22 22 22 21 21 21 21 21 21 22 23 23 24 25 25 26 26 27 28 28 28 29 29 30 30 31 31 31 31 31 31 31 31 31 32 32 33 33 33 33 33 34 34 34 34 34 34 35 35 35 34 34 35 35 36 35 35 35 33 31 32 33 34 34
14 19 21 22 22 22 21 21 23 27 30 34 35 34 32 29 25 24 23 23 23 22 22 22 22 22 22 23 22 23 23 23 24 24 25 26 26 26 27 28 28 29 29 29 30 30 30 31 31 31 31 31 31 31 32 32 33 33 33 34 34 34 34 34 35 35 34 34 34 35 35 34 34 35 36 36 35 35 34 33 34 35 35 34 35
15 19 21 22 23 22 21 22 25 28 32 34 34 33 32 29 26 25 24 23 23 23 23 23 23 23 23 23 23 23 23 24 24 25 25 26 26 27 27 28 29 29 29 29 30 30 30 31 31 31 31 32 32 32 32 32 33 33 33 34 34 34 34 34 34 34 33 32 33 33 34 34 33 34 35 35 35 34 32 32 33 35 38 39 37
17 20 22 23 24 23 22 23 25 29 33 35 34 33 32 29 26 25 25 24 24 24 23 23 23 23 23 24 24 24 24 25 25 25 25 26 26 27 27 28 29 29 29 29 30 30 31 31 32 32 32 32 32 32 32 32 33 33 33 34 33 33 33 33 32 32 32 31 32 33 33 33 33 33 34 33 31 30 28 29 29 30 35 40 40
18 21 22 24 24 22 21 22 25 30 35 36 35 34 32 28 26 25 25 25 24 24 23 23 23 24 24 24 24 25 25 25 25 25 26 26 26 27 28 29 29 30 30 30 30 30 31 32 32 33 33 32 33 33 33 33 33 33 34 34 32 31 31 31 31 32 32 33 33 34 35 34 34 34 34 33 31 31 30 30 30 29 29 33 37
18 21 22 23 23 21 19 21 26 33 36 34 33 33 31 27 26 25 25 25 24 24 23 23 24 24 24 24 25 25 25 26 26 26 26 26 27 28 28 29 29 30 30 30 30 31 31 32 33 33 33 33 33 34 34 34 33 33 33 32 30 30 30 31 32 33 33 34 35 36 36 35 36 36 37 36 34 35 35 35 36 35 33 31 31
17 20 22 23 23 21 20 24 30 35 35 33 32 32 29 26 25 25 24 24 24 23 23 23 23 24 24 24 25 25 26 26 26 27 27 27 28 29 29 30 30 30 30 30 30 31 31 33 33 33 34 34 34 34 34 33 33 32 31 30 29 30 31 32 33 34 34 35 35 37 37 37 38 39 39 39 38 37 36 37 38 39 38 37 35
17 20 23 23 23 22 23 27 33 34 33 32 32 30 27 25 24 24 23 23 23 23 22 22 23 24 24 25 25 25 26 27 27 27 28 28 29 29 30 30 31 31 31 31 31 32 32 33 34 34 34 34 35 35 34 33 33 31 29 28 29 30 32 33 34 34 34 35 36 38 39 40 40 41 42 41 40 40 39 38 38 37 36 38 40
19 22 24 24 23 23 25 30 33 33 31 31 31 29 26 25 24 23 23 22 22 22 22 22 23 24 24 25 25 26 26 26 27 27 28 28 29 30 30 31 31 31 31 31 32 33 33 33 34 34 34 34 35 34 33 32 31 30 28 28 29 31 32 33 34 35 35 37 39 40 41 43 43 43 44 43 43 42 41 41 40 38 36 35 37
23 21 22 23 24 24 27 31 32 31 31 31 30 27 25 25 24 23 22 22 22 22 22 22 23 23 24 25 25 26 26 26 27 27 28 29 29 30 30 30 30 30 31 31 31 32 34 34 34 34 34 34 34 33 32 31 30 28 27 28 30 32 33 34 36 37 38 39 41 43 44 45 46 46 45 45 45 44 43 42 41 39 37 34 32
21 19 20 22 24 26 30 32 31 30 30 30 28 26 25 25 24 23 22 21 22 22 22 22 23 23 24 25 26 26 26 26 27 27 28 29 29 30 30 30 30 30 30 31 32 32 34 34 34 34 34 34 34 33 31 29 27 26 27 30 33 34 35 37 39 41 41 41 41 43 45 46 47 47 47 46 45 44 44 43 42 40 38 36 33
19 19 20 22 24 29 32 32 31 30 30 29 27 26 25 25 24 23 22 22 22 22 22 22 23 24 25 25 26 26 26 26 27 27 28 29 29 30 30 31 30 30 31 31 32 33 34 34 34 35 35 35 34 32 30 28 26 25 26 29 32 35 37 40 41 41 41 41 42 44 46 47 47 47 47 47 46 44 42 41 41 42 42 41 40
22 22 22 23 28 31 32 31 30 30 29 28 26 25 25 25 24 23 22 22 22 22 23 23 23 24 25 25 26 26 26 26 26 27 28 29 29 30 30 31 31 31 31 32 32 33 34 33 34 35 35 35 34 32 29 28 26 25 25 27 30 35 37 39 39 38 38 40 42 44 45 47 48 49 48 48 47 45 43 42 41 41 43 44 45
24 23 24 28 31 32 31 30 30 29 28 27 25 25 25 25 24 23 23 22 23 22 23 23 23 24 24 24 25 25 25 25 26 27 27 28 29 29 29 30 31 31 31 32 33 33 33 33 34 35 35 35 34 31 29 27 26 25 26 27 30 33 35 35 35 37 39 41 42 44 45 46 47 49 49 48 46 45 45 44 42 41 42 43 44
24 24 27 30 31 30 30 30 30 29 27 26 25 25 25 25 24 24 23 23 23 23 23 23 23 23 23 24 24 24 25 25 26 27 28 28 29 29 29 30 31 31 31 32 33 34 33 33 34 35 35 35 33 31 29 28 27 26 27 28 30 31 33 32 33 35 37 39 41 43 45 47 46 47 48 48 46 45 45 44 44 42 41 43 44
24 26 29 30 30 30 30 30 29 28 27 25 25 25 25 25 24 24 23 23 23 23 23 23 23 23 23 23 24 24 25 26 26 27 28 28 29 29 29 30 31 31 32 33 33 34 33 33 34 34 35 35 33 30 29 29 28 27 27 29 29 30 32 32 33 33 34 36 39 40 42 44 44 42 43 43 43 44 44 43 42 41 41 41 42
26 28 29 30 30 30 30 29 28 27 26 25 25 25 25 25 24 23 23 22 23 23 23 23 23 23 22 22 23 25 25 26 26 27 28 28 28 29 29 30 31 31 32 32 33 33 33 33 34 34 34 35 33 30 29 29 28 27 27 28 29 31 33 33 34 34 34 35 38 39 41 42 41 37 35 34 35 39 41 42 40 40 40 39 39
28 30 30 31 31 30 30 30 28 27 26 25 25 25 25 25 24 23 23 22 23 23 23 23 23 22 22 22 23 24 25 26 26 27 27 28 28 28 28 29 31 32 32 32 32 32 32 33 33 33 33 33 33 31 29 30 29 27 27 28 29 31 32 33 35 35 35 36 38 40 41 40 39 35 30 29 31 33 35 37 38 38 38 38 38
30 31 32 33 32 30 30 30 29 27 25 24 25 25 25 25 24 23 23 23 23 23 23 23 23 22 22 22 23 24 25 26 26 26 27 27 27 28 28 29 30 31 32 31 32 32 32 31 32 33 31 31 33 32 30 30 28 26 26 27 29 30 31 33 34 34 35 37 40 41 39 35 35 33 27 27 28 28 29 32 33 34 37 38 37
34 34 34 33 32 31 30 30 28 27 25 24 25 25 25 25 24 23 23 23 23 23 23 23 22 22 21 22 23 24 25 25 26 26 26 27 27 27 28 29 30 31 31 31 31 32 32 31 31 32 30 30 31 31 28 27 25 24 24 24 27 29 30 32 34 33 36 39 41 41 37 32 31 31 27 27 29 28 29 31 31 32 36 37 36
35 35 34 33 32 31 31 30 28 26 25 25 25 25 25 24 24 24 23 23 23 24 23 23 22 21 21 22 23 24 25 25 26 26 26 26 26 27 28 29 30 30 30 31 30 31 32 31 30 31 31 30 30 29 27 25 23 21 21 21 25 29 30 32 33 33 35 40 40 40 37 32 30 29 28 28 29 29 29 30 31 32 34 35 34
36 35 33 31 32 32 31 30 27 25 25 25 25 26 25 25 25 24 23 23 24 24 24 23 23 22 22 22 22 24 25 25 25 26 26 26 26 27 28 29 30 29 29 30 29 29 30 30 29 30 31 30 30 29 28 26 23 21 19 20 24 28 29 31 31 31 34 39 39 39 38 34 30 30 30 30 28 27 27 27 29 31 32 31 30
36 34 32 31 31 32 31 29 27 25 25 25 25 26 25 25 26 24 23 23 25 25 24 24 23 22 22 22 22 23 24 25 25 26 27 26 25 26 27 29 29 29 29 30 29 28 28 28 28 30 31 31 31 31 30 29 26 22 21 21 24 27 29 29 29 30 35 39 38 37 38 37 34 33 33 32 29 26 25 24 25 27 30 29 26
36 32 31 31 31 32 31 29 26 25 24 24 25 26 26 26 26 24 23 24 25 25 25 24 23 22 22 22 23 23 24 25 25 26 26 26 26 26 27 28 29 29 30 30 29 28 27 28 28 29 31 32 33 32 33 31 27 24 23 23 24 27 28 29 28 29 35 38 37 35 36 38 38 35 32 31 28 25 23 22 22 24 27 26 23
36 32 31 31 31 31 31 29 26 25 24 24 25 26 26 26 25 23 23 25 25 25 26 25 23 23 23 23 23 23 23 24 25 26 26 26 26 26 27 28 28 29 29 30 29 27 27 27 29 30 32 33 34 35 35 31 27 25 25 26 27 28 30 31 28 28 33 37 36 33 33 35 37 35 32 29 26 23 20 19 21 23 23 23 20
34 32 31 30 30 31 30 29 27 24 24 25 25 26 27 26 24 24 24 25 26 26 26 25 24 23 23 23 24 23 23 23 24 25 26 26 26 26 27 27 28 28 28 29 28 27 26 27 29 31 33 35 36 37 36 32 27 26 27 29 29 29 31 32 28 29 34 37 34 32 31 32 34 33 31 29 25 22 20 18 17 19 20 22 20
33 31 30 29 30 30 29 29 27 24 24 25 25 26 27 26 25 25 25 26 26 27 26 25 24 24 23 24 24 24 24 24 24 24 26 26 26 27 27 27 27 27 28 28 27 26 26 28 29 30 31 34 36 37 36 32 29 28 31 32 30 28 31 32 30 33 37 37 35 33 31 31 32 28 25 25 23 20 21 20 17 16 16 17 17
32 30 29 28 29 29 28 28 27 24 24 24 25 25 25 25 25 25 25 26 27 27 27 26 25 25 24 24 25 25 25 25 24 24 25 25 25 26 27 27 27 27 27 27 27 26 26 28 28 27 28 32 35 36 35 32 29 30 34 33 29 28 32 33 33 37 40 38 36 35 31 29 30 24 18 18 17 15 15 17 16 15 14 14 14
31 30 29 28 28 28 28 27 27 25 24 24 25 24 23 24 24 24 25 26 27 26 27 26 25 25 25 25 25 26 26 26 26 25 25 25 25 26 27 27 26 26 27 28 26 26 27 27 26 26 28 31 33 33 32 31 29 31 33 32 28 30 33 32 34 39 41 38 36 34 30 28 28 23 17 15 13 10 8 9 11 12 13 13 14
31 30 28 27 27 27 27 27 26 25 25 25 25 24 23 22 23 23 24 26 27 26 26 26 25 25 25 25 26 26 26 27 27 27 26 25 24 25 26 28 27 24 25 26 25 25 27 26 24 24 26 28 29 30 30 29 27 27 29 29 28 31 32 31 34 38 38 35 33 31 28 27 26 22 18 16 15 13 10 7 6 7 9 11 13
29 29 28 26 26 25 26 26 26 25 25 25 25 23 22 22 22 23 24 26 27 27 27 25 25 25 25 26 26 26 27 27 28 28 28 28 25 23 23 26 28 26 24 23 22 23 24 23 23 24 26 26 26 28 28 27 24 24 26 27 28 30 29 30 34 35 33 31 29 27 24 23 22 20 18 16 16 16 14 12 9 7 6 8 10
28 28 27 26 24 24 25 25 25 25 25 25 24 23 22 21 21 22 24 25 26 27 27 25 25 25 25 26 27 27 27 27 27 28 29 30 29 27 23 22 24 25 25 23 21 21 21 20 21 24 26 25 25 26 26 24 22 22 24 27 29 29 28 28 31 31 28 25 23 22 20 20 19 18 18 16 16 16 15 14 12 10 8 6 6
Wind_Direction
111 114 114 114 113 111 110 106 104 103 97 90 86 72 54 36 16 2 357 353 348 343 338 334 331 328 328 326 327 327 325 324 324 323 321 318 315 313 310 308 306 304 301 300 297 294 293 290 289 288 287 287 285 284 283 282 282 282 282 282 283 283 282 283 284 287 291 295 299 300 298 301 302 301 302 302 300 296 292 289 287 285 284 282 282
110 110 109 109 106 105 102 98 94 90 78 64 54 38 23 13 4 360 357 353 348 343 338 335 332 331 331 330 330 330 328 327 326 324 323 320 318 315 312 310 307 306 303 301 298 295 293 291 290 289 288 287 286 286 285 284 283 283 283 283 283 282 282 282 283 286 290 292 298 299 299 304 300 297 304 306 302 294 288 290 289 287 285 281 279
105 105 104 103 99 98 92 85 76 66 56 43 31 20 10 4 1 359 355 350 344 339 335 333 331 331 331 330 330 329 327 325 323 322 321 319 318 316 314 313 311 310 309 307 305 303 299 296 294 292 290 289 288 288 286 285 283 282 282 283 283 283 283 284 285 286 286 288 295 295 300 308 302 298 301 300 301 298 295 296 293 288 285 281 276
100 100 99 97 92 87 78 67 57 46 37 27 17 10 5 3 359 355 350 345 340 336 334 332 330 330 330 329 329 328 326 324 322 319 318 317 316 315 315 314 314 315 314 313 311 309 306 304 301 297 295 292 290 289 288 286 283 281 279 279 282 284 285 284 283 285 286 288 291 289 295 298 292 297 298 292 296 296 296 298 295 291 288 283 279
99 97 94 90 82 73 63 52 41 30 23 17 12 7 4 360 354 349 344 340 337 334 333 332 331 330 329 328 327 325 324 321 319 317 316 317 316 316 316 316 316 316 314 312 310 309 307 305 303 300 297 295 293 291 288 287 285 282 280 279 280 282 284 284 282 282 284 284 281 281 288 287 283 295 302 296 289 282 289 294 293 293 292 286 282
100 96 89 80 70 60 50 39 28 21 16 11 7 4 359 352 346 342 338 336 335 334 333 332 331 330 329 329 329 328 328 326 324 322 320 320 319 318 318 317 316 316 315 313 309 308 308 306 305 304 302 299 297 295 292 289 287 285 283 281 279 279 281 284 283 282 283 283 281 277 274 273 279 289 295 294 289 282 281 285 288 292 293 291 288
98 91 82 71 59 46 34 25 17 12 9 5 1 356 350 342 337 335 334 334 334 334 333 331 330 329 329 330 331 331 331 331 329 327 326 324 323 321 320 319 319 318 317 315 312 311 310 308 307 305 304 302 300 298 296 293 291 289 287 284 282 281 281 282 282 284 285 283 281 278 272 270 273 277 279 284 290 288 279 274 278 282 287 290 290
93 83 73 59 44 30 19 11 5 0 358 356 353 347 341 335 333 332 333 333 334 333 332 329 328 328 328 329 330 330 330 329 327 326 325 323 323 321 319 319 318 317 316 315 312 310 310 310 308 307 305 303 300 298 296 295 294 292 291 289 287 285 282 281 281 282 284 283 281 277 274 272 269 270 271 272 278 283 282 279 276 276 280 286 289
87 75 60 42 28 17 7 358 353 350 350 348 344 338 333 331 330 330 331 332 333 331 329 326 325 325 326 327 328 328 327 327 325 324 322 321 321 320 318 317 316 315 315 314 311 310 311 311 310 309 307 306 303 301 298 296 295 293 292 291 289 287 285 284 283 282 281 280 281 278 276 275 272 268 267 265 265 271 278 280 278 278 277 276 283
73 56 38 26 16 6 357 349 344 343 341 338 333 328 326 326 327 328 330 331 331 328 325 323 322 322 323 324 325 325 324 324 323 322 321 320 319 319 320 319 319 317 316 316 314 312 312 311 310 309 308 308 306 305 303 301 299 297 295 292 290 289 288 286 285 283 281 278 277 276 275 274 273 271 266 263 263 264 270 275 277 278 276 273 274
46 21 11 6 360 354 348 340 334 331 328 324 321 321 322 323 326 327 328 329 327 324 321 320 320 320 321 322 323 324 323 323 322 321 320 320 320 320 321 321 321 320 319 318 317 315 315 314 312 311 310 309 307 306 305 303 302 300 299 297 295 293 291 289 286 284 283 281 278 276 273 270 269 269 267 265 265 265 268 272 274 274 275 275 274
14 -0 352 345 342 340 334 327 321 315 312 312 314 317 320 322 324 326 326 325 323 320 318 319 319 319 320 321 323 323 323 323 322 322 321 322 322 322 322 322 321 322 321 320 319 318 318 317 315 314 313 312 310 308 306 304 303 302 300 299 297 296 294 292 290 287 285 283 280 277 273 270 267 266 267 266 264 265 268 271 273 274 274 273 273
359 352 344 335 328 323 318 312 309 307 306 311 316 320 323 325 326 327 325 322 320 317 317 319 320 320 320 321 323 323 323 323 323 323 323 323 324 323 324 324 323 323 322 320 320 319 318 318 316 315 315 314 312 311 309 307 305 303 302 300 299 298 296 294 291 289 287 284 281 278 274 271 268 266 265 265 264 265 266 268 271 272 272 274 273
322 325 327 325 318 310 306 304 304 305 308 315 321 324 327 329 329 328 325 321 318 317 318 319 320 320 320 321 322 322 322 323 322 322 322 323 323 324 324 324 323 323 321 320 319 318 317 316 315 315 315 314 313 312 311 309 308 305 303 302 301 300 299 297 294 292 289 286 284 281 278 275 273 270 267 265 264 264 264 265 270 272 270 272 274
286 297 305 309 307 302 299 299 302 306 312 319 325 329 331 331 330 327 324 319 318 318 319 319 319 319 319 320 321 322 322 322 321 320 321 322 323 324 323 323 322 321 320 319 318 317 317 315 315 315 314 314 313 312 311 309 307 305 304 303 302 301 300 298 296 295 293 290 288 285 282 280 278 277 274 270 265 262 262 262 266 270 271 271 272
281 289 294 298 299 297 296 298 302 310 318 324 329 332 332 332 329 326 323 320 319 319 319 318 319 319 319 320 321 322 322 321 321 320 322 323 324 323 322 321 321 320 318 318 317 317 317 316 315 315 315 314 313 311 310 308 306 305 304 303 302 302 300 297 295 294 293 292 291 288 286 283 280 278 275 273 270 264 262 261 260 262 266 269 271
284 287 290 293 294 294 295 298 304 313 322 328 331 332 332 332 328 325 323 322 321 321 320 320 320 320 321 322 323 323 322 322 321 321 322 323 323 322 321 320 320 319 318 318 318 318 318 317 316 316 316 315 314 312 310 309 307 305 304 304 303 303 300 298 297 295 293 292 290 289 287 285 283 279 273 270 269 267 264 261 259 257 258 262 266
283 286 287 289 291 291 294 298 305 316 324 328 331 332 333 331 327 325 324 323 322 321 320 320 320 321 322 322 322 322 322 322 321 321 322 322 321 321 320 319 320 320 320 320 320 320 320 319 318 317 317 316 314 313 312 310 309 307 306 306 305 304 302 300 300 299 297 295 293 291 289 287 286 283 279 273 267 265 264 263 260 257 255 256 258
283 288 286 286 287 288 292 297 306 316 323 327 330 331 330 328 324 323 322 321 320 319 319 319 320 321 322 322 322 323 322 321 321 322 322 322 322 322 321 321 322 322 322 321 321 321 321 320 319 318 317 316 314 313 312 311 309 308 307 307 306 305 304 302 302 301 299 298 296 295 293 291 289 286 283 279 272 265 262 262 262 259 256 255 255
287 290 285 283 282 283 290 298 306 315 321 325 328 329 329 328 325 322 321 320 319 320 320 320 323 323 324 324 324 324 324 323 322 322 323 322 322 322 322 322 322 322 321 321 321 321 320 319 318 317 316 315 314 313 312 310 309 308 307 307 306 306 304 303 302 301 300 299 298 297 296 294 293 290 286 283 280 272 264 260 260 260 257 256 255
287 291 284 278 279 282 289 299 308 317 324 329 331 331 330 329 326 323 323 322 321 322 322 323 324 325 325 325 325 325 325 323 323 322 322 322 321 322 321 321 321 321 321 321 321 320 319 318 317 316 316 314 313 312 311 310 309 308 308 307 306 305 304 303 303 302 301 301 301 299 298 296 295 292 289 285 282 278 272 263 258 258 257 256 256
287 290 285 278 278 283 290 301 313 322 329 332 330 329 329 327 324 323 323 323 322 322 323 323 324 324 325 324 324 324 323 322 321 321 321 321 320 321 321 320 320 321 321 321 321 320 319 318 317 316 316 314 313 312 311 310 309 308 307 306 305 304 304 303 303 303 304 304 303 302 301 300 300 296 293 290 287 283 279 271 264 259 256 254 253
297 293 288 282 280 285 293 306 318 326 329 328 325 325 326 325 323 322 322 321 321 321 322 323 323 323 323 322 322 322 321 320 320 320 320 320 320 321 321 321 321 321 321 321 321 320 318 317 316 316 316 314 313 312 311 309 308 307 306 305 305 304 303 303 303 303 304 304 304 303 302 303 304 301 296 292 287 282 278 274 270 265 262 257 253
300 296 288 283 283 287 296 308 319 324 324 321 320 322 324 323 322 321 321 320 320 321 322 322 321 321 321 321 322 321 320 320 320 320 321 320 321 321 321 321 321 320 321 321 320 320 319 318 317 316 315 314 313 312 310 309 308 307 306 305 304 302 301 302 302 303 304 303 302 302 302 303 303 301 297 293 286 279 275 272 270 266 264 263 259
291 295 288 281 282 286 294 307 316 320 319 317 318 321 322 320 320 319 318 318 318 319 320 320 319 319 320 320 321 320 320 320 320 320 321 320 321 321 320 321 320 320 321 320 320 319 318 317 317 316 315 314 312 311 310 309 308 307 305 303 301 300 301 301 301 302 301 301 300 300 300 302 301 299 297 295 292 286 281 276 271 266 259 259 263
279 290 289 280 279 283 289 304 313 317 317 315 317 319 318 317 317 316 315 315 315 317 317 318 318 318 319 320 320 320 319 319 319 320 321 321 321 321 321 321 320 320 320 320 319 318 317 317 316 316 315 313 311 310 309 309 308 306 302 300 299 299 300 300 299 299 299 299 299 299 299 299 297 296 295 294 293 291 286 281 276 271 263 255 256
275 288 291 279 276 280 289 304 314 316 315 314 316 318 316 315 315 314 314 314 315 316 317 318 318 319 319 319 319 319 318 318 319 319 320 320 320 320 321 320 320 320 320 320 319 318 317 317 316 316 314 312 311 310 309 308 306 303 299 297 297 298 298 298 297 298 299 299 299 298 297 297 295 293 292 292 290 288 286 283 278 276 271 263 256
281 289 292 281 275 281 294 308 314 314 312 313 315 316 314 314 314 314 315 315 315 316 317 318 318 318 318 318 317 317 317 317 318 318 319 319 320 320 319 319 319 319 319 319 318 317 316 316 316 315 313 311 310 308 308 307 303 298 294 293 296 297 297 299 300 301 302 301 300 298 297 297 295 293 292 290 288 286 283 281 277 274 273 269 262
286 285 286 280 277 284 299 310 312 310 310 312 313 313 312 312 313 314 315 316 315 315 316 317 317 316 315 315 315 315 316 317 317 318 319 319 319 318 318 317 317 318 317 317 316 316 315 316 315 314 312 310 309 308 308 307 301 297 296 297 299 300 301 303 304 305 304 303 302 301 299 298 297 295 293 290 288 286 283 279 276 273 269 265 262
288 279 278 277 280 291 304 310 309 309 309 310 311 311 310 311 312 313 314 315 314 313 315 315 314 314 314 314 315 316 317 318 318 318 318 318 318 317 317 317 317 317 317 316 316 315 316 317 316 314 312 311 309 309 308 305 300 298 300 300 299 301 303 304 305 306 306 307 307 304 302 300 298 296 293 290 288 286 282 278 274 270 266 261 257
289 283 280 281 289 301 307 308 307 308 308 309 309 308 308 310 311 312 313 313 312 313 314 315 315 315 315 315 315 316 316 317 318 318 318 318 318 318 318 318 317 318 318 317 316 316 317 318 317 314 313 311 310 311 309 304 297 294 295 296 297 299 300 303 305 306 307 310 311 308 305 303 301 299 294 290 288 287 283 276 270 265 262 260 257
291 288 286 291 300 304 305 305 306 307 307 308 308 307 308 309 310 312 313 311 312 313 313 314 315 314 314 314 314 314 315 317 318 318 319 319 319 319 319 319 318 318 318 317 317 317 318 318 317 314 313 312 312 312 309 302 296 292 292 293 296 299 302 305 307 308 311 315 315 312 310 307 303 300 296 291 287 286 284 278 272 267 262 260 258
290 290 291 297 302 303 303 304 306 307 307 308 307 306 307 308 309 311 311 310 311 312 312 313 312 312 312 312 312 313 314 317 318 318 319 319 320 320 321 319 319 318 318 317 317 318 319 319 317 316 315 313 313 312 308 302 298 294 293 294 297 303 307 308 308 310 314 317 317 315 312 309 305 300 294 288 282 279 279 277 274 269 263 260 257
289 290 294 299 302 302 303 305 306 307 307 307 306 305 305 307 308 309 309 309 309 310 311 311 310 310 311 311 311 313 315 318 319 318 319 321 321 322 322 320 319 319 319 318 318 319 320 319 318 317 315 313 313 312 309 305 301 297 295 295 299 307 310 308 307 309 311 313 315 315 311 309 307 299 291 286 282 278 276 276 273 269 264 260 256
289 291 297 301 302 302 303 305 306 306 305 305 304 303 303 305 306 307 307 307 307 309 309 309 309 310 311 311 312 314 317 319 319 320 321 322 322 323 323 322 320 320 320 319 320 320 320 320 319 317 315 313 312 311 309 306 303 298 295 296 302 310 311 309 310 310 310 312 316 313 308 307 306 299 291 287 283 279 276 276 275 270 266 262 257
290 294 300 303 303 303 304 305 306 305 304 304 303 301 302 303 303 304 305 305 306 308 309 309 309 310 311 312 313 315 318 319 320 320 321 322 323 324 324 323 321 320 320 319 320 320 320 319 319 318 315 313 311 310 308 306 304 301 296 297 305 312 312 311 312 312 312 314 316 315 312 311 308 300 292 286 282 278 275 275 274 271 268 264 258
295 300 303 304 305 304 304 306 306 305 304 303 302 300 300 301 302 304 305 305 306 307 308 307 308 309 310 312 314 315 317 318 319 320 321 322 324 325 325 324 322 321 320 320 320 320 320 319 319 318 316 313 312 312 310 307 307 304 300 302 309 312 312 311 312 314 313 312 314 319 319 314 309 303 292 286 285 282 276 273 271 268 266 264 260
301 303 304 305 305 304 305 306 306 304 304 302 300 299 298 299 302 304 305 306 306 306 307 307 307 308 310 312 314 315 316 317 318 319 320 321 323 325 325 324 322 322 321 322 321 320 319 320 318 317 316 314 313 314 313 311 310 307 303 305 310 312 312 313 313 314 313 311 316 324 322 312 308 305 293 287 289 285 276 271 267 265 264 263 261
301 301 302 304 304 303 304 305 304 304 303 301 299 298 297 299 302 303 304 306 306 306 306 306 307 308 310 312 314 315 316 317 317 318 319 321 323 325 325 324 324 324 323 323 322 320 319 320 318 316 316 316 315 315 316 316 315 310 304 306 313 315 314 315 315 314 312 313 318 326 325 313 308 306 297 292 292 286 276 269 265 264 265 264 263
298 298 300 302 301 301 302 303 303 303 301 300 298 297 298 300 301 302 305 306 304 304 305 306 306 308 309 311 313 314 315 316 316 316 317 320 322 324 324 324 324 324 324 323 322 320 318 319 318 316 316 317 319 320 322 325 323 315 305 307 317 319 316 316 317 315 314 317 322 327 327 319 311 306 299 294 292 287 277 267 263 264 264 264 266
297 297 299 300 300 300 301 302 303 302 300 301 299 298 299 301 300 302 306 305 303 304 305 306 307 308 309 311 313 313 314 314 314 314 315 318 321 322 323 323 324 324 324 324 323 321 318 318 318 317 317 321 327 329 331 333 331 322 313 313 320 322 318 318 320 316 318 323 326 327 328 323 313 306 302 298 294 286 277 268 264 262 261 262 266
300 298 299 299 299 299 301 302 302 301 300 301 300 298 300 300 300 304 308 304 302 304 305 305 307 308 309 310 311 312 312 312 312 312 313 316 320 321 322 323 323 324 324 324 324 323 320 319 318 319 321 326 332 335 336 338 337 330 321 318 320 320 319 322 324 320 321 325 326 326 327 325 318 310 304 301 297 287 277 271 267 260 257 263 269
301 299 299 300 298 298 300 301 301 300 301 301 300 299 299 299 301 306 306 302 302 304 304 305 306 307 308 309 310 310 311 310 311 310 311 314 318 320 321 323 323 324 324 324 326 326 323 322 322 323 326 329 333 335 337 338 337 332 326 321 320 319 320 325 326 322 320 323 325 326 326 324 321 317 309 302 299 293 282 273 268 260 258 269 275
302 300 300 300 298 299 300 300 301 302 302 302 301 299 299 300 303 306 303 301 302 302 303 305 306 306 307 308 309 309 310 310 310 310 310 312 316 318 320 322 324 325 324 324 327 328 327 327 328 328 328 331 333 333 335 337 337 334 331 327 324 321 322 326 326 318 317 321 323 323 322 321 321 322 317 307 299 294 288 277 268 263 262 270 275
300 300 301 300 298 298 298 299 301 302 303 303 302 300 300 301 304 304 302 301 302 302 303 305 306 306 307 308 308 309 310 310 309 309 309 312 314 317 320 323 325 325 324 324 326 330 331 332 332 330 328 329 331 330 331 336 337 334 334 334 329 323 323 326 324 316 315 321 323 320 318 319 321 325 324 316 301 288 285 282 274 269 267 268 271
300 300 301 300 298 297 296 298 301 302 303 304 303 301 301 302 304 303 302 302 301 302 304 305 305 306 307 307 308 309 310 311 310 309 309 311 313 316 318 322 325 325 325 325 327 332 334 331 329 327 323 323 326 326 328 334 336 335 337 337 330 323 323 326 322 316 316 321 323 321 320 320 321 325 329 323 308 289 279 279 277 275 272 268 269
300 301 301 299 297 295 296 298 300 302 304 304 302 302 302 302 302 301 301 301 301 302 305 305 305 307 307 307 309 310 311 312 311 310 310 310 312 314 316 320 325 325 324 325 329 332 332 327 322 318 316 317 320 323 325 330 334 336 337 336 328 322 325 326 321 317 318 322 323 322 321 319 317 321 332 330 317 298 283 277 276 276 273 266 264
300 302 301 299 296 296 297 299 300 303 305 303 302 303 302 300 300 300 300 300 301 303 305 305 306 306 307 308 310 311 312 312 311 311 311 310 311 313 314 316 322 325 325 327 330 329 327 321 314 311 312 314 316 319 323 328 332 332 333 332 326 322 325 325 319 316 319 322 322 321 322 320 314 314 330 345 343 335 318 293 280 276 271 266 263
300 301 300 298 297 297 298 299 301 304 306 304 304 304 303 301 300 299 299 299 301 303 304 305 306 306 307 309 310 311 312 312 311 311 311 310 311 313 313 315 319 324 327 328 326 323 321 317 310 306 309 312 312 315 320 324 325 325 326 325 320 319 322 321 314 313 318 322 323 323 323 322 318 318 331 349 357 -0 2 350 316 291 275 268 265
299 299 299 299 298 298 298 298 301 305 305 306 306 306 305 303 301 299 299 299 302 303 304 305 306 306 307 309 310 311 311 311 311 312 311 310 311 311 312 314 315 319 324 325 322 318 315 310 305 303 305 307 307 309 315 319 318 317 317 315 311 314 319 315 309 312 318 321 322 324 324 323 324 329 337 347 355 360 5 7 0 344 312 285 269
298 299 300 301 300 298 298 299 302 305 306 307 307 307 307 306 302 300 299 300 302 303 304 306 307 306 308 309 309 311 311 310 311 312 311 311 312 312 311 311 311 313 318 321 321 317 311 306 304 304 306 308 308 308 313 316 314 314 316 314 311 314 317 312 308 313 320 321 321 326 328 329 333 338 342 348 353 355 359 3 6 9 1 334 296